Location: Moscow Pond
(43.6842°N, 73.2366°W)
Time: 21:00:02
(UTC+00:00)

Cosmos 2219 Rocket - Pass Details

Date: 08 November 2025
Orbit: 825 x 847 km, 71.0° (Epoch: 10 December)

Event Time Altitude Azimuth Distance (km) Brightness Sun altitude
Exits shadow 09:42:14 28° 323° (NW) 1,532 3.2 -21.2°
Drops below altitude 10° 09:46:17 10° 7° (N) 2,475 4.7 -20.5°
Sets 09:49:05 0° 18° (NNE) 3,416 5.5 -20.0°
